Location: Rounton
(54.4000°N, 1.3500°W)
Time: 15:22:04
(UTC+00:00)

Transit 2A Rocket - Pass Details

Date: 30 November 2021
Orbit: 584 x 918 km, 66.7° (Epoch: 21 January)

Event Time Altitude Azimuth Distance (km) Brightness Sun altitude
Rises 07:31:09 0° 166° (SSE) 3,330 9.1 -4.5°
Reaches altitude 10° 07:34:11 10° 149° (SSE) 2,460 8.9 -4.1°
Maximum altitude 07:38:05 19° 106° (ESE) 1,956 8.4 -3.6°
Drops below altitude 10° 07:42:08 10° 63° (ENE) 2,581 8.2 -3.1°
Sets 07:45:24 0° 47° (NE) 3,553 8.6 -2.8°
